• In Deutschland
  • Länderverzeichnis
  • Für 7 Tage
  • Wassertemperatur
  • Satellitenkarten
  • Wetterkarte
  • Widgets
  • user-avatar
    Anmelden

    Stündliche Wetter Laboe

    Heute, 20 September, Donnerstag

    Zeit Temperatur Niederschläge Wind Luftdruck Luftfeuchtigkeit
    00:00 +19°C° 0 mm 6 m/S 760 mmHg 76%
    01:00 +18°C° 0 mm 7 m/S 760 mmHg 76%
    02:00 +17°C° 0 mm 6 m/S 760 mmHg 78%
    03:00 +17°C° 0 mm 6 m/S 760 mmHg 80%
    04:00 +17°C° 0 mm 6 m/S 760 mmHg 83%
    05:00 +17°C° 0 mm 6 m/S 760 mmHg 84%
    06:00 +16°C° 0 mm 6 m/S 760 mmHg 84%
    07:00 +16°C° 0 mm 6 m/S 760 mmHg 85%
    08:00 +19°C° 0 mm 6 m/S 760 mmHg 80%
    09:00 +20°C° 0 mm 6 m/S 760 mmHg 75%
    10:00 +21°C° 0 mm 7 m/S 760 mmHg 70%
    11:00 +22°C° 0 mm 7 m/S 760 mmHg 66%
    12:00 +23°C° 0 mm 8 m/S 760 mmHg 62%
    13:00 +24°C° 0 mm 8 m/S 759 mmHg 58%
    14:00 +23°C° 0.1 mm 7 m/S 759 mmHg 60%
    15:00 +23°C° 0.1 mm 7 m/S 759 mmHg 61%
    16:00 +23°C° 0.1 mm 7 m/S 759 mmHg 63%
    17:00 +22°C° 0 mm 5 m/S 759 mmHg 68%
    18:00 +20°C° 0 mm 4 m/S 758 mmHg 73%
    19:00 +19°C° 0 mm 3 m/S 758 mmHg 78%
    20:00 +19°C° 0 mm 3 m/S 757 mmHg 78%
    21:00 +19°C° 0 mm 4 m/S 757 mmHg 77%
    22:00 +19°C° 0 mm 5 m/S 757 mmHg 76%
    23:00 +19°C° 0 mm 6 m/S 756 mmHg 74%

    Morgen, 21 September, Freitag

    Zeit Temperatur Niederschläge Wind Luftdruck Luftfeuchtigkeit
    00:00 +19°C° 0 mm 6 m/S 755 mmHg 71%
    01:00 +19°C° 0 mm 6 m/S 755 mmHg 69%
    02:00 +18°C° 0 mm 7 m/S 754 mmHg 68%
    03:00 +18°C° 0 mm 7 m/S 753 mmHg 68%
    04:00 +18°C° 0 mm 8 m/S 752 mmHg 68%
    05:00 +20°C° 0 mm 8 m/S 751 mmHg 67%
    06:00 +19°C° 0 mm 9 m/S 750 mmHg 65%
    07:00 +21°C° 0 mm 9 m/S 749 mmHg 63%
    08:00 +21°C° 0.1 mm 10 m/S 749 mmHg 63%
    09:00 +21°C° 0.1 mm 11 m/S 749 mmHg 63%
    10:00 +21°C° 0.1 mm 11 m/S 748 mmHg 62%
    11:00 +18°C° 1.1 mm 11 m/S 749 mmHg 64%
    12:00 +17°C° 1.1 mm 12 m/S 750 mmHg 65%
    13:00 +14°C° 1.1 mm 12 m/S 751 mmHg 67%
    14:00 +14°C° 0.1 mm 12 m/S 752 mmHg 63%
    15:00 +14°C° 0.1 mm 13 m/S 752 mmHg 59%
    16:00 +14°C° 0.1 mm 13 m/S 753 mmHg 55%
    17:00 +13°C° 0.1 mm 12 m/S 753 mmHg 57%
    18:00 +12°C° 0.1 mm 11 m/S 754 mmHg 59%
    19:00 +11°C° 0.1 mm 10 m/S 754 mmHg 61%
    20:00 +11°C° 0.5 mm 10 m/S 754 mmHg 64%
    21:00 +11°C° 0.5 mm 11 m/S 754 mmHg 66%
    22:00 +11°C° 0.5 mm 11 m/S 755 mmHg 69%
    23:00 +11°C° 0.3 mm 10 m/S 755 mmHg 72%

    übermorgen, 22 September, Samstag

    Zeit Temperatur Niederschläge Wind Luftdruck Luftfeuchtigkeit
    00:00 +11°C° 0.3 mm 9 m/S 756 mmHg 74%
    01:00 +10°C° 0.3 mm 9 m/S 756 mmHg 77%
    02:00 +10°C° 0.1 mm 8 m/S 757 mmHg 79%
    03:00 +10°C° 0.1 mm 7 m/S 757 mmHg 80%
    04:00 +10°C° 0.1 mm 7 m/S 758 mmHg 81%
    05:00 +10°C° 0.2 mm 7 m/S 758 mmHg 82%
    06:00 +10°C° 0.2 mm 6 m/S 758 mmHg 83%
    07:00 +10°C° 0.2 mm 6 m/S 759 mmHg 84%
    08:00 +11°C° 0.4 mm 7 m/S 759 mmHg 80%
    09:00 +12°C° 0.4 mm 8 m/S 759 mmHg 75%
    10:00 +13°C° 0.4 mm 9 m/S 759 mmHg 71%
    11:00 +13°C° 0.4 mm 10 m/S 759 mmHg 67%
    12:00 +14°C° 0.4 mm 10 m/S 759 mmHg 63%
    13:00 +14°C° 0.4 mm 11 m/S 760 mmHg 59%
    14:00 +14°C° 0.2 mm 11 m/S 760 mmHg 59%
    15:00 +13°C° 0.2 mm 11 m/S 760 mmHg 60%
    16:00 +13°C° 0.2 mm 11 m/S 760 mmHg 60%
    17:00 +12°C° 0.1 mm 10 m/S 760 mmHg 64%
    18:00 +11°C° 0.1 mm 9 m/S 760 mmHg 68%
    19:00 +10°C° 0.1 mm 8 m/S 761 mmHg 71%
    20:00 +10°C° 0.1 mm 8 m/S 761 mmHg 73%
    21:00 +10°C° 0.1 mm 8 m/S 761 mmHg 74%
    22:00 +10°C° 0.1 mm 7 m/S 761 mmHg 76%
    23:00 +9°C° 0 mm 7 m/S 761 mmHg 77%

    23 September, Sonntag

    Zeit Temperatur Niederschläge Wind Luftdruck Luftfeuchtigkeit
    00:00 +9°C° 0 mm 7 m/S 761 mmHg 78%
    01:00 +9°C° 0 mm 7 m/S 762 mmHg 79%
    02:00 +9°C° 0 mm 6 m/S 761 mmHg 80%
    03:00 +9°C° 0 mm 6 m/S 761 mmHg 81%
    04:00 +8°C° 0 mm 5 m/S 761 mmHg 83%
    05:00 +8°C° 0 mm 5 m/S 761 mmHg 82%
    06:00 +9°C° 0 mm 5 m/S 760 mmHg 82%
    07:00 +9°C° 0 mm 5 m/S 760 mmHg 82%
    08:00 +11°C° 0 mm 4 m/S 760 mmHg 79%
    09:00 +11°C° 0 mm 4 m/S 759 mmHg 75%
    10:00 +12°C° 0 mm 4 m/S 759 mmHg 72%
    11:00 +11°C° 0.8 mm 4 m/S 758 mmHg 76%
    12:00 +11°C° 0.8 mm 4 m/S 757 mmHg 81%
    13:00 +10°C° 0.8 mm 4 m/S 756 mmHg 85%
    14:00 +9°C° 0.9 mm 5 m/S 755 mmHg 85%
    15:00 +9°C° 0.9 mm 6 m/S 753 mmHg 86%
    16:00 +8°C° 0.9 mm 7 m/S 752 mmHg 86%
    17:00 +7°C° 1.8 mm 9 m/S 750 mmHg 87%
    18:00 +8°C° 1.8 mm 10 m/S 749 mmHg 89%
    19:00 +8°C° 1.8 mm 11 m/S 747 mmHg 90%
    20:00 +8°C° 4.8 mm 11 m/S 746 mmHg 91%
    21:00 +8°C° 4.8 mm 11 m/S 745 mmHg 92%
    22:00 +8°C° 4.8 mm 11 m/S 744 mmHg 93%
    23:00 +8°C° 2.4 mm 12 m/S 744 mmHg 92%

    24 September, Montag

    Zeit Temperatur Niederschläge Wind Luftdruck Luftfeuchtigkeit
    00:00 +8°C° 2.4 mm 13 m/S 743 mmHg 91%
    01:00 +8°C° 2.4 mm 14 m/S 743 mmHg 89%
    02:00 +8°C° 2 mm 14 m/S 745 mmHg 88%
    03:00 +8°C° 2 mm 13 m/S 747 mmHg 86%
    04:00 +8°C° 2 mm 13 m/S 749 mmHg 84%
    05:00 +8°C° 0.3 mm 12 m/S 750 mmHg 82%
    06:00 +8°C° 0.3 mm 12 m/S 752 mmHg 81%
    07:00 +8°C° 0.3 mm 11 m/S 754 mmHg 79%
    08:00 +9°C° 0 mm 11 m/S 755 mmHg 75%
    09:00 +10°C° 0 mm 12 m/S 756 mmHg 70%
    10:00 +12°C° 0 mm 12 m/S 758 mmHg 66%
    11:00 +12°C° 0.1 mm 12 m/S 759 mmHg 63%
    12:00 +13°C° 0.1 mm 12 m/S 760 mmHg 60%
    13:00 +13°C° 0.1 mm 12 m/S 761 mmHg 57%
    14:00 +13°C° 0.2 mm 12 m/S 762 mmHg 57%
    15:00 +12°C° 0.2 mm 11 m/S 762 mmHg 56%
    16:00 +12°C° 0.2 mm 11 m/S 763 mmHg 56%
    17:00 +11°C° 0.1 mm 11 m/S 764 mmHg 58%
    18:00 +9°C° 0.1 mm 10 m/S 765 mmHg 61%
    19:00 +8°C° 0.1 mm 10 m/S 765 mmHg 63%
    20:00 +8°C° 0.1 mm 9 m/S 766 mmHg 67%
    21:00 +9°C° 0.1 mm 8 m/S 766 mmHg 71%
    22:00 +8°C° 0.1 mm 7 m/S 766 mmHg 76%
    23:00 +8°C° 0.5 mm 7 m/S 766 mmHg 79%

    25 September, Dienstag

    Zeit Temperatur Niederschläge Wind Luftdruck Luftfeuchtigkeit
    00:00 +8°C° 0.5 mm 6 m/S 767 mmHg 83%
    01:00 +8°C° 0.5 mm 6 m/S 767 mmHg 87%
    02:00 +8°C° 0.1 mm 7 m/S 767 mmHg 86%
    03:00 +6°C° 0.1 mm 7 m/S 768 mmHg 85%
    04:00 +6°C° 0.1 mm 7 m/S 768 mmHg 84%
    05:00 +6°C° 0 mm 7 m/S 769 mmHg 83%
    06:00 +6°C° 0 mm 7 m/S 769 mmHg 83%
    07:00 +8°C° 0 mm 7 m/S 770 mmHg 82%
    08:00 +9°C° 0 mm 7 m/S 770 mmHg 77%
    09:00 +11°C° 0 mm 7 m/S 771 mmHg 73%
    10:00 +12°C° 0 mm 7 m/S 771 mmHg 68%
    11:00 +14°C° 0.1 mm 7 m/S 771 mmHg 66%
    12:00 +15°C° 0.1 mm 7 m/S 771 mmHg 64%
    13:00 +15°C° 0.1 mm 7 m/S 771 mmHg 63%
    14:00 +15°C° 0.1 mm 7 m/S 771 mmHg 63%
    15:00 +15°C° 0.1 mm 8 m/S 771 mmHg 63%
    16:00 +15°C° 0.1 mm 8 m/S 771 mmHg 63%
    17:00 +12°C° 0 mm 7 m/S 771 mmHg 69%
    18:00 +11°C° 0 mm 6 m/S 771 mmHg 74%
    19:00 +10°C° 0 mm 5 m/S 772 mmHg 79%
    20:00 +10°C° 0 mm 5 m/S 772 mmHg 81%
    21:00 +9°C° 0 mm 5 m/S 772 mmHg 84%
    22:00 +10°C° 0 mm 4 m/S 772 mmHg 86%
    23:00 +10°C° 0 mm 4 m/S 772 mmHg 87%
    Mehr zeigen